Location: Paris
(48.6709°N, 2.3750°E)
Time: 10:49:18
(UTC+02:00)

LO-87 - Pass Details

Date: 27 June 2022
Orbit: 451 x 466 km, 97.4° (Epoch: 09 August)

Event Time Altitude Azimuth Distance (km) Brightness Sun altitude
Exits shadow 02:31:18 12° 261° (W) 1,465 ? -17.5°
Maximum altitude 02:31:47 13° 270° (W) 1,451 ? -17.5°
Drops below altitude 10° 02:33:23 10° 298° (WNW) 1,613 ? -17.4°
Sets 02:36:27 0° 328° (NNW) 2,501 ? -17.4°
